Guernsey, United Kingdom

5:11 AM GMT on December 18, 2017 (GMT +0000)
Guernsey

Weather History for EGJB - December, 2012

Change the Weather History Date:

Thursday, December 6, 2012

  Actual Average Record
Temperature  
Mean Temperature 42 °F -  
Max Temperature 46 °F 47 °F 57 °F (2007)
Min Temperature 37 °F 42 °F 35 °F (1998)
Degree Days  
Heating Degree Days 24    
Moisture  
Dew Point 37 °F    
Average Humidity 77    
Maximum Humidity 93    
Minimum Humidity 63    
Precipitation  
Precipitation 0.01 in - - ()
Sea Level Pressure  
Sea Level Pressure 29.99 in    
Wind  
Wind Speed 8 mph ()    
Max Wind Speed 24 mph    
Max Gust Speed 33 mph    
Visibility 6.4 miles    
Events Rain    
Averages and records for this station are not official NWS values.
T = Trace of Precipitation, MM = Missing Value Source: Averaged Metar Reports

Daily Weather History Graph

Daily Weather History Graph

Search for Another Location

Airport or City:

Trip Planner

Search our weather history database for the weather conditions in past years. The results will help you decide how hot, cold, wet, or windy it might be!

Date:

Astronomy

Dec. 06, 2012 Rise Set
Actual Time 7:51 AM GMT 4:11 PM GMT
Civil Twilight 7:13 AM GMT 4:49 PM GMT
Nautical Twilight 6:33 AM GMT 5:29 PM GMT
Astronomical Twilight 5:54 AM GMT 6:08 PM GMT
Moon No Moon Rise 12:06 PM GMT (12/6)
Length of Visible Light 9h 35m
Length of Day
8h 20m
Waning Gibbous, 52% of the Moon is Illuminated
Dec 6
Waning Gibbous
Dec 6
Last Quarter
Dec 13
New
Dec 20
First Quarter
Dec 28
Full

Hourly Weather History & Observations

Time (GMT) Temp. Windchill Dew Point Humidity Pressure Visibility Wind Dir Wind Speed Gust Speed Precip Events Conditions
12:00 AM 42 °F - 35 °F 66% 30.09 in 28 mi NNW 11.5 mph - - Rain Light Rain Showers
3:00 AM 41 °F - 33 °F 63% 30.10 in 28 mi NNW 8.1 mph - -  
3:50 AM 41.0 °F - 33.8 °F 76% 30.06 in 6.2 mi Calm Calm - N/A   Partly Cloudy
4:20 AM 39.2 °F - 33.8 °F 81% 30.09 in 6.2 mi Calm Calm - N/A   Partly Cloudy
4:50 AM 39.2 °F - 33.8 °F 81% 30.09 in 6.2 mi Calm Calm - N/A   Partly Cloudy
5:20 AM 39.2 °F - 32.0 °F 75% 30.06 in 6.2 mi Calm Calm - N/A   Partly Cloudy
5:50 AM 39.2 °F - 32.0 °F 75% 30.06 in 6.2 mi Calm Calm - N/A   Partly Cloudy
6:00 AM 39 °F - 32 °F 66% 30.10 in 25 mi Calm Calm - -   Partly Cloudy
6:20 AM 39.2 °F - 32.0 °F 75% 30.06 in 6.2 mi Calm Calm - N/A   Partly Cloudy
6:50 AM 41.0 °F - 32.0 °F 70% 30.09 in 6.2 mi Calm Calm - N/A   Partly Cloudy
7:20 AM 39.2 °F 33.6 °F 33.8 °F 81% 30.09 in 6.2 mi North 8.1 mph - N/A Rain Light Rain Showers
7:50 AM 37.4 °F 33.8 °F 33.8 °F 87% 30.06 in 6.2 mi NE 4.6 mph - N/A   Partly Cloudy
8:20 AM 37.4 °F - 33.8 °F 87% 30.06 in 6.2 mi East 2.3 mph - N/A   Partly Cloudy
8:50 AM 41.0 °F - 33.8 °F 76% 30.09 in 6.2 mi Calm Calm - N/A   Partly Cloudy
9:00 AM 40 °F - 34 °F 72% 30.12 in 31 mi Calm Calm - -   Partly Cloudy
9:20 AM 41.0 °F 39.0 °F 35.6 °F 81% 30.06 in 6.2 mi ESE 3.5 mph - N/A   Partly Cloudy
9:50 AM 42.8 °F 40.1 °F 37.4 °F 81% 30.06 in 6.2 mi SSW 4.6 mph - N/A   Partly Cloudy
10:20 AM 44.6 °F 40.2 °F 37.4 °F 76% 30.06 in 6.2 mi South 8.1 mph - N/A   Scattered Clouds
10:50 AM 44.6 °F 39.7 °F 35.6 °F 71% 30.06 in 6.2 mi SSW 9.2 mph - N/A   Scattered Clouds
11:20 AM 46.4 °F 41.5 °F 37.4 °F 71% 30.04 in 6.2 mi SW 10.4 mph - N/A   Scattered Clouds
11:50 AM 42.8 °F 36.6 °F 39.2 °F 87% 30.04 in 6.2 mi SW 11.5 mph - N/A   Partly Cloudy
12:00 PM 43 °F - 38 °F 77% 30.06 in 16 mi SW 11.5 mph - - Rain Light Rain Showers
12:20 PM 42.8 °F 36.2 °F 39.2 °F 87% 30.04 in 6.2 mi SW 12.7 mph - N/A Rain Light Rain Showers
12:50 PM 42.8 °F 39.3 °F 41.0 °F 93% 30.01 in 6.2 mi South 5.8 mph - N/A   Scattered Clouds
1:20 PM 42.8 °F 35.4 °F 39.2 °F 87% 30.01 in 6.2 mi SW 15.0 mph - N/A   Scattered Clouds
1:50 PM 44.6 °F 37.2 °F 37.4 °F 76% 30.01 in 6.2 mi WSW 17.3 mph - N/A   Scattered Clouds
2:20 PM 44.6 °F 37.2 °F 37.4 °F 76% 29.98 in 6.2 mi SW 17.3 mph - N/A   Mostly Cloudy
2:50 PM 44.6 °F 37.4 °F 37.4 °F 76% 29.98 in 6.2 mi SW 16.1 mph - N/A   Scattered Clouds
3:00 PM 45 °F - 37 °F 64% 29.99 in 25 mi SW 16.1 mph - -   Mostly Cloudy
3:20 PM 44.6 °F 37.4 °F 35.6 °F 71% 29.95 in 6.2 mi SW 16.1 mph - N/A   Scattered Clouds
3:50 PM 44.6 °F 36.6 °F 33.8 °F 66% 29.95 in 6.2 mi SW 19.6 mph - N/A   Partly Cloudy
4:20 PM 44.6 °F 37.2 °F 37.4 °F 76% 29.92 in 6.2 mi SW 17.3 mph - N/A   Partly Cloudy
4:50 PM 44.6 °F 36.9 °F 37.4 °F 76% 29.92 in 6.2 mi SSW 18.4 mph - N/A   Partly Cloudy
5:20 PM 46.4 °F 39.0 °F 37.4 °F 71% 29.89 in 6.2 mi SSW 19.6 mph - N/A   Partly Cloudy
5:50 PM 46.4 °F 38.7 °F 39.2 °F 76% 29.86 in 6.2 mi SSW 20.7 mph 33.4 mph N/A   Partly Cloudy
6:00 PM 46 °F - 38 °F 66% 29.89 in 28 mi SSW 20.7 mph - -   Partly Cloudy
6:20 PM 46.4 °F 38.7 °F 39.2 °F 76% 29.86 in 6.2 mi SSW 20.7 mph 32.2 mph N/A   Mostly Cloudy
6:50 PM 44.6 °F 36.1 °F 39.2 °F 81% 29.86 in 6.2 mi SSW 21.9 mph - N/A Rain Light Rain
7:20 PM 46.4 °F 38.1 °F 41.0 °F 81% 29.83 in 6.2 mi SSW 24.2 mph - N/A Rain Light Rain
7:50 PM 46.4 °F 38.5 °F 42.8 °F 87% 29.80 in 6.2 mi SW 21.9 mph - N/A Rain Light Rain
8:20 PM 46.4 °F 38.5 °F 42.8 °F 87% 29.80 in 6.2 mi SW 21.9 mph - N/A Rain Light Rain
8:50 PM 46.4 °F 38.7 °F 42.8 °F 87% 29.77 in 5.0 mi West 20.7 mph - N/A Rain Rain
9:00 PM 46 °F - 44 °F 88% 29.81 in 5 mi West 20.7 mph - - Rain Rain